[[{"header":{"parameterUnit":"m.s-1","parameterCategory":2,"la1":30.2991,"la2":30.254,"lo1":-89.0895,"lo2":-89.0444,"dy":0.0017,"dx":0.0017,"nx":28,"ny":28,"refTime":"2023-10-25T21:00:00:Z","depth":"0","parameterNumber":2,"parameterNumberName":"U-component_of_CURRENTS"},"data":[0,0,0,0,0,0,0,0,0,0,0,0,0,0,0,0,0,0,0,0,0,0,0,0,0,0,0,0,0,0,0,0,0,0,0,0,0,0,0,0,0,0,0,0,0,0,0,0,0,0,0,0,0,0,0,0,0,0,-0.1728,-0.1729,0,-0.1779,-0.178,-0.1781,-0.1761,-0.1759,-0.1758,-0.1756,-0.1746,-0.1747,-0.1749,0,0,0,0,0,0,0,0,0,0,0,0,0,-0.1707,-0.1707,-0.1728,-0.1729,-0.1729,-0.1779,-0.178,-0.1781,-0.1761,-0.1759,-0.1757,-0.1755,-0.1746,-0.1747,-0.1749,0,0,0,0,0,0,0,0,0,0,0,0,0,-0.1737,-0.1707,-0.1728,-0.1721,-0.1721,-0.1778,-0.178,-0.1781,-0.1761,-0.1759,-0.1757,-0.1754,-0.1745,-0.1747,-0.1749,-0.1809,0,0,-0.1755,-0.1755,0,0,0,0,0,0,0,0,-0.1735,-0.1738,-0.1722,-0.1722,-0.1721,-0.1757,-0.1768,-0.1786,-0.1762,-0.1751,-0.1756,-0.1753,-0.1743,-0.1745,-0.1767,-0.1808,-0.1808,-0.1755,-0.1756,-0.1757,-0.1757,0,0,0,0,0,0,0,-0.1733,-0.1736,-0.1753,-0.1723,-0.1722,-0.1747,-0.1748,-0.1773,-0.1762,-0.1752,-0.1749,-0.1748,-0.1742,-0.1766,-0.1767,-0.1808,-0.1755,-0.1756,-0.1757,-0.1758,-0.1876,-0.1878,0,0,0,0,0,0,-0.1715,-0.1734,-0.1751,-0.1754,-0.1717,-0.1748,-0.175,-0.1752,-0.1763,-0.1762,-0.175,-0.1747,-0.1764,-0.1764,-0.1766,-0.1795,-0.1757,-0.1758,-0.1759,-0.1874,-0.1877,-0.1879,0,0,0,0,0,0,-0.1715,-0.1716,-0.1749,-0.1741,-0.1746,-0.175,-0.1753,-0.1754,-0.1771,-0.1762,-0.176,-0.1764,-0.1762,-0.1763,-0.1791,-0.1796,-0.1759,-0.1761,-0.1872,-0.1875,-0.1878,-0.1881,0,0,0,0,0,0,-0.1714,-0.1716,-0.1722,-0.174,-0.1746,-0.1783,-0.1755,-0.1757,-0.1772,-0.1768,-0.1774,-0.177,-0.176,-0.1788,-0.1793,-0.1798,-0.1762,-0.1869,-0.1873,-0.1877,-0.1878,-0.1883,-0.1888,0,0,0,0,0,-0.1713,-0.1727,-0.1722,-0.1725,-0.1751,-0.1784,-0.1791,-0.1788,-0.1774,-0.1794,-0.1796,-0.177,-0.1815,-0.1792,-0.1797,-0.1802,-0.1868,-0.1872,-0.1877,-0.1876,-0.1882,-0.1888,0,0,0,0,0,0,-0.1727,-0.1727,-0.1722,-0.1736,-0.1757,-0.1778,-0.1794,-0.1798,-0.182,-0.1812,-0.1801,-0.18,-0.1824,-0.183,-0.1805,-0.1853,-0.1836,-0.1842,-0.1834,-0.184,-0.1845,-0.184,-0.1764,0,0,0,0,0,-0.1732,-0.1736,-0.1749,-0.1763,-0.177,-0.1787,-0.1802,-0.1804,-0.182,-0.1828,-0.1831,-0.184,-0.1854,-0.1857,-0.1876,-0.1909,-0.1912,-0.1918,-0.1923,-0.1927,-0.193,-0.193,-0.1934,-0.1894,-0.1894,-0.1894,0,0,-0.1741,-0.1741,-0.1745,-0.1765,-0.1778,-0.1812,-0.1791,-0.1816,-0.1842,-0.1824,-0.1861,-0.1861,-0.187,-0.1897,-0.1909,-0.1896,-0.1949,-0.1932,-0.1935,-0.1936,-0.1935,-0.1939,-0.1942,-0.1897,-0.1896,-0.1896,0,0,-0.1767,-0.1762,-0.1778,-0.1803,-0.1822,-0.1833,-0.184,-0.1868,-0.1872,-0.1918,-0.19,-0.1907,-0.1946,-0.1939,-0.1943,-0.1997,-0.1977,-0.2003,-0.2015,-0.2016,-0.2018,-0.202,-0.2055,-0.206,-0.2,-0.2,-0.2,0,-0.1779,-0.1798,-0.1793,-0.1826,-0.1842,-0.1843,-0.1877,-0.1899,-0.1933,-0.1937,-0.193,-0.1967,-0.1966,-0.198,-0.199,-0.2003,-0.2011,-0.1982,-0.2018,-0.202,-0.2022,-0.2057,-0.2062,-0.2001,-0.2001,-0.2001,-0.2001,0,-0.1823,-0.1845,-0.1859,-0.189,-0.1914,-0.1943,-0.1962,-0.1981,-0.1983,-0.2,-0.2018,-0.202,-0.2033,-0.2034,-0.2026,-0.2037,-0.2044,-0.2022,-0.1991,-0.2025,-0.2061,-0.2067,-0.2002,-0.2002,-0.2002,-0.2001,0,0,-0.1819,-0.1877,-0.1881,-0.1907,-0.1946,-0.197,-0.2002,-0.2027,-0.2048,-0.2065,-0.2087,-0.2094,-0.2078,-0.2083,-0.2064,-0.2059,-0.2082,-0.2044,-0.2044,-0.2058,-0.2108,-0.2232,-0.2249,-0.2053,-0.2053,-0.2054,-0.2136,0,-0.1849,-0.1913,-0.1932,-0.1994,-0.2024,-0.2036,-0.2071,-0.2095,-0.2108,-0.2135,-0.2114,-0.2138,-0.2102,-0.2101,-0.209,-0.2078,-0.2093,-0.2064,-0.2091,-0.2093,-0.218,-0.2258,-0.2072,-0.2139,-0.2141,-0.2142,-0.2143,0,-0.1871,-0.1912,-0.1971,-0.2034,-0.2047,-0.2087,-0.2116,-0.2152,-0.2178,-0.2186,-0.2184,-0.2184,-0.2174,-0.2146,-0.2138,-0.2117,-0.2123,-0.2117,-0.2119,-0.2234,-0.2226,-0.2103,-0.2148,-0.2063,-0.215,-0.215,-0.2149,0,-0.1844,-0.193,-0.1968,-0.1996,-0.2073,-0.2091,-0.2124,-0.216,-0.2188,-0.2212,-0.2237,-0.2224,-0.2234,-0.2207,-0.2221,-0.2166,-0.2243,-0.2162,-0.2289,-0.2298,-0.2149,-0.2146,-0.2093,-0.2184,-0.2184,-0.2184,-0.2184,0,-0.1848,-0.1884,-0.1965,-0.1991,-0.2043,-0.2094,-0.2139,-0.2166,-0.2216,-0.2273,-0.2257,-0.2314,-0.2248,-0.2292,-0.2262,-0.2332,-0.2282,-0.2323,-0.2335,-0.2154,-0.2151,-0.2079,-0.2072,-0.2187,-0.2186,-0.2186,-0.2185,0,-0.1806,-0.1859,-0.1913,-0.2001,-0.2027,-0.2062,-0.2148,-0.2192,-0.2234,-0.2306,-0.2318,-0.238,-0.2451,-0.2441,-0.2446,-0.2424,-0.2406,-0.2498,-0.2328,-0.2321,-0.2337,-0.2339,-0.239,-0.2336,-0.2606,-0.2609,-0.2612,0,-0.179,-0.1809,-0.1902,-0.1942,-0.1982,-0.2046,-0.2097,-0.2172,-0.2232,-0.2372,-0.2419,-0.253,-0.2634,-0.2721,-0.2682,-0.2693,-0.2586,-0.2546,-0.2414,-0.2358,-0.2365,-0.2345,-0.2291,-0.2205,-0.2204,-0.2204,-0.2203,0,-0.1753,-0.1777,-0.1824,-0.1905,-0.1968,-0.2048,-0.2137,-0.2191,-0.2307,-0.2394,-0.2574,-0.2683,-0.28,-0.2757,-0.2799,-0.2755,-0.2438,-0.2548,-0.2471,-0.2072,-0.2055,-0.2,-0.2169,-0.22,-0.22,-0.22,-0.2201,-0.2201,-0.1716,-0.1727,-0.1787,-0.1861,-0.1944,-0.2048,-0.2069,-0.2202,-0.2315,-0.241,-0.2613,-0.2681,-0.2676,-0.272,-0.2713,-0.2494,-0.256,-0.2296,-0.2313,-0.2307,-0.2233,-0.2477,-0.2552,-0.2554,-0.2556,-0.2558,-0.2559,0,-0.1672,-0.169,-0.1748,-0.183,-0.1897,-0.1963,-0.2083,-0.2083,-0.2188,-0.2299,-0.243,-0.2477,-0.2434,-0.238,-0.224,-0.2177,-0.2057,-0.2105,-0.1897,-0.1858,-0.2005,-0.196,-0.1932,-0.1932,-0.1933,-0.1933,-0.1933,-0.1933,-0.1646,-0.1661,-0.1682,-0.1755,-0.181,-0.1831,-0.1869,-0.1896,-0.1922,-0.1963,-0.1969,-0.2103,-0.2081,-0.2131,-0.1958,-0.1874,-0.1764,-0.1767,-0.1853,-0.1796,-0.1808,-0.182,-0.177,-0.1703,-0.1703,-0.1518,-0.1517,-0.1516]},{"header":{"parameterUnit":"m.s-1","parameterCategory":2,"la1":30.2991,"la2":30.254,"lo1":-89.0895,"lo2":-89.0444,"dy":0.0017,"dx":0.0017,"nx":28,"ny":28,"refTime":"2023-10-25T21:00:00:Z","depth":"0","parameterNumber":3,"parameterNumberName":"V-component_of_CURRENTS"},"data":[0,0,0,0,0,0,0,0,0,0,0,0,0,0,0,0,0,0,0,0,0,0,0,0,0,0,0,0,0,0,0,0,0,0,0,0,0,0,0,0,0,0,0,0,0,0,0,0,0,0,0,0,0,0,0,0,0,0,-0.0664,-0.0664,0,-0.0646,-0.0645,-0.0645,-0.0619,-0.0618,-0.0618,-0.0617,-0.055,-0.0549,-0.0547,0,0,0,0,0,0,0,0,0,0,0,0,0,-0.0646,-0.0646,-0.0664,-0.0664,-0.0664,-0.0646,-0.0645,-0.0645,-0.0619,-0.0618,-0.0618,-0.0617,-0.055,-0.0549,-0.0547,0,0,0,0,0,0,0,0,0,0,0,0,0,-0.0644,-0.0647,-0.0664,-0.0648,-0.0646,-0.0646,-0.0645,-0.0645,-0.0619,-0.0618,-0.0618,-0.0617,-0.0551,-0.0549,-0.0547,-0.055,0,0,-0.0541,-0.054,0,0,0,0,0,0,0,0,-0.0644,-0.0645,-0.0651,-0.0649,-0.0647,-0.0633,-0.0614,-0.0611,-0.0619,-0.063,-0.0617,-0.0617,-0.0573,-0.057,-0.0569,-0.0547,-0.0544,-0.0541,-0.054,-0.0539,-0.0538,0,0,0,0,0,0,0,-0.0644,-0.0645,-0.0657,-0.065,-0.0648,-0.0631,-0.063,-0.0613,-0.0606,-0.0629,-0.0627,-0.0624,-0.0572,-0.0571,-0.0567,-0.0543,-0.0541,-0.0539,-0.0538,-0.0537,-0.047,-0.0469,0,0,0,0,0,0,-0.0648,-0.0646,-0.0658,-0.0657,-0.0643,-0.0632,-0.0631,-0.0639,-0.0607,-0.0602,-0.0625,-0.0623,-0.0575,-0.057,-0.0565,-0.0538,-0.0539,-0.0537,-0.0536,-0.047,-0.0469,-0.0469,0,0,0,0,0,0,-0.0648,-0.065,-0.0659,-0.0649,-0.0649,-0.0633,-0.0642,-0.0639,-0.0633,-0.0604,-0.0598,-0.0622,-0.0574,-0.0568,-0.0539,-0.0536,-0.0536,-0.0534,-0.0471,-0.047,-0.0469,-0.0502,0,0,0,0,0,0,-0.0648,-0.065,-0.0657,-0.065,-0.065,-0.0653,-0.0643,-0.0639,-0.0633,-0.063,-0.06,-0.0593,-0.0573,-0.0542,-0.0537,-0.0533,-0.0533,-0.0472,-0.047,-0.0469,-0.0502,-0.0503,-0.0503,0,0,0,0,0,-0.0647,-0.0663,-0.0658,-0.0659,-0.0661,-0.0652,-0.0651,-0.0636,-0.0633,-0.0629,-0.0606,-0.0594,-0.0531,-0.054,-0.0535,-0.053,-0.0472,-0.0471,-0.0469,-0.0502,-0.0503,-0.0503,0,0,0,0,0,0,-0.066,-0.0661,-0.0656,-0.0672,-0.0659,-0.0647,-0.065,-0.0639,-0.062,-0.0618,-0.059,-0.0581,-0.0555,-0.0536,-0.0547,-0.0505,-0.0498,-0.0496,-0.0525,-0.0525,-0.0526,-0.0526,-0.0531,0,0,0,0,0,-0.0667,-0.0677,-0.0668,-0.0677,-0.0678,-0.0664,-0.0661,-0.0649,-0.0632,-0.0624,-0.0598,-0.0571,-0.0547,-0.0531,-0.0506,-0.0488,-0.0469,-0.0478,-0.0479,-0.048,-0.0474,-0.0441,-0.0438,-0.0464,-0.0464,-0.0464,0,0,-0.0669,-0.0675,-0.0677,-0.068,-0.0676,-0.0676,-0.0661,-0.0657,-0.0643,-0.0619,-0.0595,-0.0574,-0.0542,-0.0518,-0.0504,-0.0501,-0.0464,-0.0478,-0.0479,-0.0473,-0.0439,-0.0437,-0.0434,-0.0463,-0.0464,-0.0464,0,0,-0.0685,-0.0692,-0.0706,-0.0703,-0.0698,-0.0686,-0.0684,-0.0669,-0.0649,-0.0623,-0.0603,-0.0575,-0.0539,-0.0514,-0.0498,-0.0486,-0.047,-0.0481,-0.0484,-0.0453,-0.045,-0.0448,-0.0435,-0.0431,-0.048,-0.048,-0.048,0,-0.0686,-0.0709,-0.0704,-0.0719,-0.0718,-0.0692,-0.0699,-0.0676,-0.0645,-0.063,-0.0614,-0.0564,-0.0534,-0.0509,-0.0499,-0.0488,-0.0475,-0.0489,-0.0455,-0.0452,-0.0449,-0.0436,-0.0432,-0.0482,-0.0481,-0.0481,-0.0481,0,-0.071,-0.0729,-0.0739,-0.0747,-0.0742,-0.0744,-0.0716,-0.0695,-0.0668,-0.0644,-0.0608,-0.0567,-0.0539,-0.0523,-0.0504,-0.0475,-0.0475,-0.0463,-0.0458,-0.0449,-0.0435,-0.043,-0.0484,-0.0483,-0.0483,-0.0482,0,0,-0.0703,-0.0747,-0.0748,-0.0764,-0.0759,-0.0756,-0.0733,-0.0706,-0.0699,-0.0648,-0.0633,-0.0576,-0.0561,-0.054,-0.0517,-0.048,-0.0448,-0.0464,-0.0461,-0.046,-0.0393,-0.029,-0.0275,-0.0436,-0.0434,-0.0434,-0.0398,0,-0.0717,-0.0762,-0.0769,-0.0789,-0.0809,-0.0784,-0.0771,-0.0741,-0.0707,-0.0682,-0.0626,-0.0603,-0.0566,-0.0558,-0.0515,-0.047,-0.0433,-0.046,-0.0393,-0.0391,-0.0308,-0.0264,-0.0195,-0.0148,-0.0393,-0.0392,-0.0391,0,-0.073,-0.0763,-0.0801,-0.0828,-0.0833,-0.0831,-0.0813,-0.0795,-0.0752,-0.0727,-0.0691,-0.0656,-0.0601,-0.0567,-0.0478,-0.05,-0.0444,-0.0401,-0.0398,-0.0282,-0.0276,-0.0191,-0.0129,-0.0002,-0.0383,-0.0384,-0.0384,0,-0.0736,-0.0776,-0.0811,-0.0821,-0.0846,-0.0844,-0.0837,-0.0809,-0.0804,-0.0757,-0.0754,-0.0688,-0.0658,-0.0576,-0.0474,-0.048,-0.0372,-0.0374,-0.023,-0.0225,-0.0139,-0.0126,0.0051,-0.0297,-0.0297,-0.0297,-0.0297,0,-0.0753,-0.0778,-0.0819,-0.0843,-0.0869,-0.0868,-0.0882,-0.0861,-0.0849,-0.0863,-0.0784,-0.0775,-0.0655,-0.058,-0.0488,-0.0333,-0.0382,-0.0212,-0.0192,-0.0149,-0.0137,-0.0001,0.0033,-0.0296,-0.0296,-0.0297,-0.0297,0,-0.0764,-0.0793,-0.0841,-0.0878,-0.0883,-0.09,-0.092,-0.0943,-0.0911,-0.0926,-0.0914,-0.0837,-0.0723,-0.0595,-0.0459,-0.0344,-0.0117,-0.0148,-0.0106,-0.0078,0.0199,0.0228,0.0418,0.0482,0.0019,0.0022,0.0025,0,-0.0777,-0.0808,-0.0869,-0.0904,-0.0924,-0.0948,-0.0982,-0.0972,-0.1004,-0.097,-0.0991,-0.0873,-0.0795,-0.0534,-0.0287,-0.0075,-0.0011,0.0106,0.0134,0.0256,0.0299,0.0309,0.0346,0.021,0.0214,0.0217,0.022,0,-0.0804,-0.083,-0.0879,-0.0961,-0.1008,-0.1063,-0.1102,-0.1134,-0.1136,-0.1136,-0.1119,-0.1041,-0.0722,-0.0409,-0.0072,0.0048,0.0229,0.0181,0.0296,0.0479,0.0509,0.0565,0.0121,0.0248,0.0245,0.0243,0.0242,0.024,-0.0823,-0.0865,-0.0945,-0.1023,-0.1101,-0.1195,-0.1243,-0.1282,-0.133,-0.1292,-0.121,-0.1011,-0.0492,0.0019,0.0161,0.0554,0.0473,0.0652,0.0674,0.0669,0.0765,0.0396,0.0561,0.056,0.056,0.0559,0.0558,0,-0.0845,-0.0911,-0.0999,-0.1123,-0.1253,-0.1256,-0.1351,-0.1394,-0.146,-0.1279,-0.1201,-0.0616,-0.014,0.0312,0.0878,0.1046,0.1034,0.1093,0.1106,0.1117,0.079,0.0837,0.1085,0.1085,0.1084,0.1084,0.1084,0.1084,-0.0861,-0.0953,-0.1017,-0.1245,-0.1339,-0.149,-0.1547,-0.1569,-0.1462,-0.1151,-0.0775,-0.0467,0.0169,0.0998,0.1434,0.1439,0.1517,0.1516,0.1538,0.1303,0.1262,0.1223,0.1278,0.1614,0.1615,0.1858,0.1861,0.1863]}],[{"header":{"parameterUnit":"m.s-1","parameterCategory":2,"la1":30.2991,"la2":30.254,"lo1":-89.0895,"lo2":-89.0444,"dy":0.0017,"dx":0.0017,"nx":28,"ny":28,"refTime":"2023-10-25T21:00:00:Z","depth":"2","parameterNumber":2,"parameterNumberName":"U-component_of_CURRENTS"},"data":[0,0,0,0,0,0,0,0,0,0,0,0,0,0,0,0,0,0,0,0,0,0,0,0,0,0,0,0,0,0,0,0,0,0,0,0,0,0,0,0,0,0,0,0,0,0,0,0,0,0,0,0,0,0,0,0,0,0,-0.0908,-0.0908,0,-0.092,-0.092,-0.092,-0.0925,-0.0925,-0.0925,-0.0925,-0.1042,-0.1045,-0.1048,0,0,0,0,0,0,0,0,0,0,0,0,0,-0.0991,-0.0989,-0.0908,-0.0908,-0.0909,-0.092,-0.092,-0.092,-0.0925,-0.0925,-0.0925,-0.0925,-0.1041,-0.1044,-0.1048,0,0,0,0,0,0,0,0,0,0,0,0,0,-0.0973,-0.0988,-0.0908,-0.0913,-0.0914,-0.092,-0.092,-0.092,-0.0925,-0.0925,-0.0925,-0.0925,-0.1039,-0.1044,-0.1048,-0.1074,0,0,-0.1062,-0.1064,0,0,0,0,0,0,0,0,-0.0974,-0.097,-0.0912,-0.0913,-0.0914,-0.0922,-0.0992,-0.0977,-0.0925,-0.0919,-0.0925,-0.0925,-0.1012,-0.1019,-0.1018,-0.108,-0.1085,-0.1063,-0.1066,-0.1067,-0.1069,0,0,0,0,0,0,0,-0.0975,-0.097,-0.0912,-0.0912,-0.0913,-0.095,-0.0946,-0.0989,-0.0966,-0.092,-0.092,-0.0923,-0.1013,-0.1013,-0.1021,-0.1086,-0.1063,-0.1067,-0.1069,-0.1071,-0.1176,-0.1176,0,0,0,0,0,0,-0.097,-0.097,-0.0911,-0.0912,-0.0946,-0.0948,-0.0944,-0.0918,-0.0963,-0.097,-0.0923,-0.0924,-0.1005,-0.1015,-0.1025,-0.1132,-0.1067,-0.1072,-0.1074,-0.1176,-0.1176,-0.1176,0,0,0,0,0,0,-0.0971,-0.0963,-0.0911,-0.0945,-0.094,-0.0945,-0.0917,-0.0918,-0.0938,-0.0965,-0.0973,-0.0944,-0.1006,-0.1019,-0.1089,-0.1134,-0.1074,-0.1078,-0.1176,-0.1176,-0.1176,-0.1301,0,0,0,0,0,0,-0.0973,-0.0963,-0.0969,-0.0943,-0.0938,-0.0909,-0.0917,-0.0919,-0.0939,-0.094,-0.0986,-0.0995,-0.1007,-0.1082,-0.1094,-0.114,-0.1081,-0.1176,-0.1176,-0.1176,-0.1296,-0.1305,-0.1312,0,0,0,0,0,-0.0975,-0.0947,-0.0968,-0.0963,-0.0936,-0.0909,-0.0909,-0.0915,-0.094,-0.0937,-0.0992,-0.0995,-0.1089,-0.1088,-0.1101,-0.1149,-0.1176,-0.1176,-0.1176,-0.1293,-0.1303,-0.1312,0,0,0,0,0,0,-0.0965,-0.0944,-0.0967,-0.0931,-0.0931,-0.091,-0.0908,-0.093,-0.0968,-0.0997,-0.1022,-0.1035,-0.1104,-0.1099,-0.1096,-0.1167,-0.1122,-0.1125,-0.1206,-0.1216,-0.1224,-0.1219,-0.1085,0,0,0,0,0,-0.0975,-0.0959,-0.0948,-0.0926,-0.0921,-0.0932,-0.0935,-0.0953,-0.0972,-0.0989,-0.1023,-0.1063,-0.1109,-0.1143,-0.1165,-0.123,-0.1211,-0.1253,-0.1261,-0.1268,-0.1266,-0.1224,-0.1229,-0.1176,-0.1176,-0.1176,0,0,-0.0966,-0.0955,-0.0947,-0.0928,-0.0925,-0.095,-0.0931,-0.094,-0.0999,-0.1002,-0.1085,-0.11,-0.1127,-0.1191,-0.122,-0.1203,-0.1291,-0.1268,-0.1275,-0.1269,-0.1225,-0.123,-0.1235,-0.1176,-0.1176,-0.1176,0,0,-0.0957,-0.0927,-0.0938,-0.0924,-0.0943,-0.0967,-0.0979,-0.0989,-0.1024,-0.1112,-0.1122,-0.1154,-0.1237,-0.1245,-0.127,-0.1328,-0.1328,-0.134,-0.1399,-0.136,-0.1364,-0.1368,-0.1436,-0.1444,-0.1351,-0.1352,-0.1352,0,-0.0972,-0.097,-0.0936,-0.0939,-0.0955,-0.0983,-0.1023,-0.1059,-0.1108,-0.1124,-0.1155,-0.1222,-0.1258,-0.131,-0.1351,-0.1351,-0.1363,-0.1378,-0.1373,-0.1375,-0.1377,-0.1445,-0.1453,-0.1358,-0.1357,-0.1356,-0.1356,0,-0.0979,-0.0986,-0.097,-0.1014,-0.1024,-0.1042,-0.1092,-0.1118,-0.1192,-0.1227,-0.1284,-0.1324,-0.1334,-0.1373,-0.1417,-0.144,-0.1464,-0.1388,-0.1359,-0.139,-0.1461,-0.1467,-0.1366,-0.1364,-0.1362,-0.1361,0,0,-0.1011,-0.0998,-0.1001,-0.1029,-0.107,-0.1076,-0.1149,-0.1207,-0.1222,-0.1308,-0.1329,-0.1438,-0.1412,-0.1433,-0.1451,-0.1471,-0.1552,-0.1469,-0.1464,-0.1559,-0.1559,-0.171,-0.1731,-0.148,-0.148,-0.1479,-0.1637,0,-0.1063,-0.1085,-0.1085,-0.1147,-0.1165,-0.1173,-0.1217,-0.1261,-0.1307,-0.1319,-0.1371,-0.1403,-0.1452,-0.146,-0.1487,-0.1518,-0.1558,-0.1522,-0.1494,-0.1496,-0.1641,-0.1738,-0.1422,-0.1545,-0.1642,-0.1643,-0.1644,0,-0.1097,-0.1115,-0.117,-0.1188,-0.1195,-0.1249,-0.1271,-0.1314,-0.1317,-0.1335,-0.1348,-0.1358,-0.1435,-0.1435,-0.1527,-0.1509,-0.155,-0.1585,-0.1588,-0.1679,-0.1654,-0.1508,-0.1551,-0.1653,-0.1652,-0.1651,-0.1651,0,-0.1125,-0.1173,-0.1231,-0.123,-0.1259,-0.1288,-0.1326,-0.1317,-0.1326,-0.1328,-0.1346,-0.1363,-0.1445,-0.1441,-0.1597,-0.1532,-0.1721,-0.1591,-0.1771,-0.1785,-0.1484,-0.1473,-0.1613,-0.1613,-0.1613,-0.1612,-0.1612,0,-0.1154,-0.1192,-0.1248,-0.1251,-0.1316,-0.1319,-0.1363,-0.1344,-0.133,-0.1382,-0.1362,-0.145,-0.1454,-0.1574,-0.1607,-0.1802,-0.1719,-0.1826,-0.1829,-0.1533,-0.1525,-0.1553,-0.1543,-0.1618,-0.1617,-0.1616,-0.1615,0,-0.115,-0.1181,-0.1232,-0.1288,-0.1317,-0.1355,-0.1402,-0.1404,-0.1398,-0.1462,-0.1476,-0.1551,-0.1741,-0.1796,-0.1877,-0.1894,-0.1976,-0.205,-0.1798,-0.1771,-0.2049,-0.2044,-0.2183,-0.2189,-0.2195,-0.2199,-0.2203,0,-0.1154,-0.1162,-0.1245,-0.1291,-0.1336,-0.1405,-0.1441,-0.1437,-0.146,-0.1585,-0.164,-0.182,-0.1997,-0.2223,-0.2159,-0.2214,-0.2253,-0.2051,-0.1837,-0.2117,-0.2104,-0.2091,-0.2079,-0.1501,-0.1498,-0.1497,-0.1495,0,-0.1148,-0.1168,-0.122,-0.1293,-0.1375,-0.1444,-0.1518,-0.1555,-0.1612,-0.1696,-0.1918,-0.2058,-0.223,-0.2171,-0.2253,-0.222,-0.1992,-0.2028,-0.2312,-0.1458,-0.1499,-0.1481,-0.1484,-0.1479,-0.1481,-0.1482,-0.1483,-0.1483,-0.1161,-0.1177,-0.123,-0.1306,-0.1397,-0.1496,-0.1535,-0.1642,-0.1735,-0.1807,-0.2021,-0.2109,-0.2064,-0.2013,-0.2004,-0.1932,-0.2041,-0.1881,-0.1872,-0.1868,-0.1813,-0.1867,-0.1911,-0.1915,-0.1918,-0.1921,-0.1924,0,-0.1118,-0.115,-0.123,-0.1322,-0.1401,-0.1455,-0.1571,-0.1581,-0.1725,-0.1789,-0.1902,-0.1727,-0.1689,-0.1703,-0.1516,-0.1547,-0.135,-0.1539,-0.12,-0.1218,-0.1234,-0.1133,-0.1057,-0.1056,-0.1054,-0.1053,0,0,-0.1118,-0.1151,-0.118,-0.1298,-0.1371,-0.1436,-0.1496,-0.1505,-0.1503,-0.1549,-0.1501,-0.1499,-0.159,-0.126,-0.1213,-0.1132,-0.1154,-0.1075,-0.1749,-0.1361,-0.1375,-0.1404,-0.1272,0,0,0,0,0]},{"header":{"parameterUnit":"m.s-1","parameterCategory":2,"la1":30.2991,"la2":30.254,"lo1":-89.0895,"lo2":-89.0444,"dy":0.0017,"dx":0.0017,"nx":28,"ny":28,"refTime":"2023-10-25T21:00:00:Z","depth":"2","parameterNumber":3,"parameterNumberName":"V-component_of_CURRENTS"},"data":[0,0,0,0,0,0,0,0,0,0,0,0,0,0,0,0,0,0,0,0,0,0,0,0,0,0,0,0,0,0,0,0,0,0,0,0,0,0,0,0,0,0,0,0,0,0,0,0,0,0,0,0,0,0,0,0,0,0,-0.0119,-0.0119,0,-0.0122,-0.0122,-0.0122,-0.013,-0.013,-0.013,-0.013,-0.0189,-0.0191,-0.0192,0,0,0,0,0,0,0,0,0,0,0,0,0,-0.0218,-0.0216,-0.0119,-0.0119,-0.0119,-0.0122,-0.0122,-0.0122,-0.013,-0.013,-0.013,-0.013,-0.0189,-0.0191,-0.0192,0,0,0,0,0,0,0,0,0,0,0,0,0,-0.0195,-0.0215,-0.0119,-0.0122,-0.0122,-0.0122,-0.0122,-0.0123,-0.013,-0.013,-0.013,-0.0131,-0.0188,-0.019,-0.0193,-0.0206,0,0,-0.02,-0.0201,0,0,0,0,0,0,0,0,-0.0196,-0.0192,-0.0122,-0.0122,-0.0122,-0.0125,-0.0179,-0.0153,-0.013,-0.0129,-0.013,-0.0131,-0.0172,-0.0175,-0.0177,-0.0209,-0.0212,-0.02,-0.0201,-0.0202,-0.0203,0,0,0,0,0,0,0,-0.0198,-0.0192,-0.0122,-0.0122,-0.0122,-0.0157,-0.0153,-0.0174,-0.0153,-0.0129,-0.0129,-0.0127,-0.0172,-0.0175,-0.0179,-0.0212,-0.02,-0.0202,-0.0203,-0.0204,-0.023,-0.0229,0,0,0,0,0,0,-0.0188,-0.0193,-0.0122,-0.0122,-0.0158,-0.0154,-0.015,-0.0125,-0.0151,-0.0154,-0.0127,-0.0127,-0.0171,-0.0176,-0.0181,-0.0235,-0.0202,-0.0205,-0.0206,-0.0231,-0.023,-0.0229,0,0,0,0,0,0,-0.019,-0.0181,-0.0122,-0.0158,-0.0153,-0.0152,-0.0124,-0.0125,-0.0154,-0.0148,-0.0153,-0.0158,-0.0171,-0.0178,-0.0212,-0.0236,-0.0206,-0.0208,-0.0231,-0.023,-0.0229,-0.032,0,0,0,0,0,0,-0.0193,-0.0181,-0.0188,-0.0156,-0.015,-0.0127,-0.0124,-0.0125,-0.015,-0.0151,-0.0176,-0.0179,-0.0172,-0.0208,-0.0214,-0.0239,-0.0209,-0.0232,-0.0231,-0.023,-0.0318,-0.0323,-0.0326,0,0,0,0,0,-0.0196,-0.0176,-0.0187,-0.018,-0.0148,-0.0127,-0.0128,-0.013,-0.0152,-0.0159,-0.0179,-0.018,-0.0202,-0.0211,-0.0217,-0.0244,-0.0233,-0.0231,-0.023,-0.0316,-0.0322,-0.0326,0,0,0,0,0,0,-0.0205,-0.0174,-0.0186,-0.0155,-0.0153,-0.0128,-0.0139,-0.0151,-0.0174,-0.0198,-0.0194,-0.0198,-0.0232,-0.0216,-0.0225,-0.0236,-0.0209,-0.0209,-0.0273,-0.0278,-0.0282,-0.0263,-0.0211,0,0,0,0,0,-0.0215,-0.0206,-0.0181,-0.0166,-0.0166,-0.0169,-0.0174,-0.0184,-0.0187,-0.0199,-0.021,-0.0218,-0.0225,-0.0237,-0.0238,-0.0264,-0.0228,-0.0271,-0.0276,-0.028,-0.0262,-0.0223,-0.0223,-0.0224,-0.0224,-0.0224,0,0,-0.0215,-0.02,-0.0195,-0.0173,-0.0175,-0.0191,-0.0172,-0.0188,-0.0213,-0.0204,-0.0248,-0.0248,-0.0234,-0.0254,-0.0265,-0.0251,-0.0264,-0.0277,-0.0282,-0.0262,-0.0221,-0.0222,-0.0222,-0.0223,-0.0223,-0.0223,0,0,-0.0226,-0.0199,-0.0216,-0.0207,-0.0222,-0.0227,-0.0241,-0.0242,-0.0252,-0.0286,-0.0283,-0.0288,-0.0307,-0.029,-0.0287,-0.0309,-0.029,-0.0315,-0.0329,-0.0292,-0.0293,-0.0292,-0.0272,-0.0269,-0.0314,-0.0314,-0.0314,0,-0.0244,-0.0247,-0.0219,-0.023,-0.024,-0.025,-0.0284,-0.0286,-0.0303,-0.0293,-0.0307,-0.0305,-0.0313,-0.0313,-0.032,-0.0323,-0.0302,-0.0327,-0.0301,-0.0299,-0.0297,-0.0276,-0.0272,-0.0318,-0.0318,-0.0318,-0.0317,0,-0.0271,-0.0281,-0.028,-0.0311,-0.0315,-0.0336,-0.0336,-0.0344,-0.0368,-0.0357,-0.036,-0.0362,-0.034,-0.0355,-0.0356,-0.0345,-0.0338,-0.032,-0.03,-0.0303,-0.028,-0.0274,-0.0324,-0.0323,-0.0322,-0.0321,0,0,-0.0299,-0.031,-0.0314,-0.0342,-0.0364,-0.0366,-0.0387,-0.0389,-0.0379,-0.0395,-0.0374,-0.0393,-0.0372,-0.0363,-0.0367,-0.0348,-0.0344,-0.0339,-0.0335,-0.0337,-0.0279,-0.0178,-0.0161,-0.0334,-0.0332,-0.0331,-0.0279,0,-0.0353,-0.0392,-0.0388,-0.0443,-0.0467,-0.0451,-0.0454,-0.0445,-0.0429,-0.0398,-0.038,-0.0373,-0.0383,-0.0389,-0.037,-0.0353,-0.0326,-0.0359,-0.0256,-0.0252,-0.0177,-0.0149,-0.0157,-0.0101,-0.0273,-0.0272,-0.0271,0,-0.0396,-0.042,-0.048,-0.0496,-0.0503,-0.0532,-0.0515,-0.0521,-0.0451,-0.043,-0.0396,-0.0366,-0.0356,-0.0357,-0.0315,-0.0343,-0.0307,-0.0288,-0.0285,-0.0145,-0.0137,-0.0116,-0.0083,-0.026,-0.026,-0.0261,-0.0262,0,-0.0434,-0.0479,-0.0538,-0.0541,-0.0561,-0.057,-0.0582,-0.0524,-0.0511,-0.0448,-0.043,-0.038,-0.0389,-0.0328,-0.0296,-0.0304,-0.0238,-0.0233,-0.01,-0.0094,-0.005,-0.004,-0.0162,-0.0162,-0.0162,-0.0163,-0.0163,0,-0.048,-0.0518,-0.0557,-0.0575,-0.0624,-0.0613,-0.0633,-0.0597,-0.0551,-0.0548,-0.0464,-0.0458,-0.0384,-0.0334,-0.0282,-0.0176,-0.0219,-0.0081,-0.0058,-0.0082,-0.0076,-0.0165,-0.0166,-0.0161,-0.0161,-0.0161,-0.0162,0,-0.0509,-0.0536,-0.0597,-0.0633,-0.0644,-0.0676,-0.0692,-0.069,-0.0637,-0.0632,-0.0623,-0.0527,-0.0455,-0.0356,-0.0264,-0.0166,-0.0067,-0.0014,-0.005,-0.0028,0.0049,0.0042,0.0165,0.0169,0.0173,0.0176,0.0179,0,-0.0532,-0.0558,-0.0633,-0.0679,-0.0709,-0.0751,-0.0777,-0.0745,-0.0745,-0.0691,-0.0697,-0.0595,-0.0516,-0.0306,-0.0119,0.0058,0.0004,0.0171,0.0194,0.0081,0.0089,0.0077,0.0066,0.0187,0.0189,0.0191,0.0193,0,-0.0569,-0.0597,-0.0659,-0.074,-0.0803,-0.0861,-0.0892,-0.0903,-0.0881,-0.0856,-0.0826,-0.0742,-0.0482,-0.0243,0.0051,0.0143,0.0155,0.0226,0.0111,0.0128,0.0114,0.0118,0.0104,0.0211,0.0209,0.0208,0.0207,0.0206,-0.0606,-0.065,-0.0729,-0.0818,-0.0906,-0.0985,-0.1039,-0.1042,-0.1056,-0.0984,-0.0895,-0.0709,-0.0438,0.0031,0.0191,0.035,0.0342,0.0386,0.0374,0.0361,0.0378,0.0374,0.052,0.052,0.052,0.052,0.052,0,-0.0604,-0.068,-0.0786,-0.0918,-0.1052,-0.1062,-0.1133,-0.1159,-0.1195,-0.1011,-0.0903,-0.0556,-0.0199,0.0046,0.0344,0.0538,0.0477,0.0542,0.0419,0.0403,0.0388,0.04,0.0551,0.0551,0.0552,0.0552,0,0,-0.0624,-0.0721,-0.079,-0.1033,-0.1141,-0.1302,-0.1359,-0.1322,-0.1206,-0.1046,-0.0823,-0.0461,-0.015,0.0083,0.0291,0.0415,0.0348,0.0419,0.0381,0.0194,0.0176,0.0295,0.0297,0,0,0,0,0]}],[{"header":{"parameterUnit":"m.s-1","parameterCategory":2,"la1":30.2991,"la2":30.254,"lo1":-89.0895,"lo2":-89.0444,"dy":0.0017,"dx":0.0017,"nx":28,"ny":28,"refTime":"2023-10-25T21:00:00:Z","depth":"4","parameterNumber":2,"parameterNumberName":"U-component_of_CURRENTS"},"data":[0,0,0,0,0,0,0,0,0,0,0,0,0,0,0,0,0,0,0,0,0,0,0,0,0,0,0,0,0,0,0,0,0,0,0,0,0,0,0,0,0,0,0,0,0,0,0,0,0,0,0,0,0,0,0,0,0,0,-0.0704,-0.0705,0,-0.071,-0.0709,-0.0709,-0.0716,-0.0717,-0.0717,-0.0718,-0.0706,-0.0705,-0.0705,0,0,0,0,0,0,0,0,0,0,0,0,0,-0.0599,-0.0601,-0.0704,-0.0705,-0.0705,-0.071,-0.0709,-0.0709,-0.0716,-0.0717,-0.0718,-0.0718,-0.0706,-0.0705,-0.0704,0,0,0,0,0,0,0,0,0,0,0,0,0,-0.0624,-0.0602,-0.0704,-0.0713,-0.0714,-0.071,-0.0709,-0.0709,-0.0716,-0.0717,-0.0718,-0.0719,-0.0707,-0.0706,-0.0704,-0.0679,0,0,-0.07,-0.07,0,0,0,0,0,0,0,0,-0.0623,-0.0627,-0.0711,-0.0713,-0.0714,-0.0718,-0.0668,-0.07,-0.0716,-0.071,-0.0718,-0.0719,-0.0711,-0.0709,-0.0702,-0.0679,-0.0678,-0.07,-0.0699,-0.0699,-0.0699,0,0,0,0,0,0,0,-0.0621,-0.0627,-0.0701,-0.0712,-0.0714,-0.0683,-0.0687,-0.0673,-0.0701,-0.0711,-0.0712,-0.0721,-0.0711,-0.0703,-0.0701,-0.0678,-0.07,-0.0699,-0.0698,-0.0698,-0.0683,-0.0684,0,0,0,0,0,0,-0.0635,-0.0626,-0.0701,-0.0702,-0.0675,-0.0685,-0.069,-0.0711,-0.0702,-0.0703,-0.072,-0.0721,-0.0705,-0.0703,-0.0701,-0.0715,-0.0699,-0.0698,-0.0697,-0.0683,-0.0683,-0.0684,0,0,0,0,0,0,-0.0633,-0.0643,-0.0701,-0.0667,-0.0673,-0.0687,-0.071,-0.0711,-0.0717,-0.071,-0.071,-0.0727,-0.0705,-0.0703,-0.0698,-0.0713,-0.0697,-0.0696,-0.0682,-0.0683,-0.0683,-0.0715,0,0,0,0,0,0,-0.063,-0.0642,-0.0654,-0.0669,-0.0676,-0.0707,-0.071,-0.0711,-0.0722,-0.0724,-0.0716,-0.0715,-0.0706,-0.07,-0.0697,-0.0711,-0.0695,-0.0682,-0.0683,-0.0683,-0.0713,-0.0716,-0.0719,0,0,0,0,0,-0.0627,-0.0646,-0.0655,-0.0664,-0.0695,-0.0708,-0.0708,-0.0716,-0.0722,-0.0723,-0.0719,-0.0716,-0.0703,-0.0699,-0.0695,-0.071,-0.0682,-0.0682,-0.0683,-0.0712,-0.0716,-0.0719,0,0,0,0,0,0,-0.0602,-0.065,-0.0659,-0.0691,-0.0703,-0.0712,-0.0718,-0.0721,-0.0717,-0.0722,-0.0712,-0.071,-0.0714,-0.0704,-0.07,-0.0708,-0.0695,-0.0695,-0.0718,-0.0721,-0.0724,-0.0714,-0.0694,0,0,0,0,0,-0.0604,-0.0636,-0.0664,-0.0687,-0.0698,-0.0707,-0.0712,-0.072,-0.0723,-0.0723,-0.0715,-0.0711,-0.0711,-0.0711,-0.0702,-0.07,-0.0709,-0.071,-0.0712,-0.0715,-0.0704,-0.0725,-0.0729,-0.0686,-0.0686,-0.0686,0,0,-0.0598,-0.0631,-0.0646,-0.0684,-0.0695,-0.0705,-0.0712,-0.0728,-0.0728,-0.0721,-0.0714,-0.0717,-0.0712,-0.0713,-0.0715,-0.071,-0.0739,-0.0716,-0.0718,-0.0706,-0.0726,-0.073,-0.0734,-0.0687,-0.0687,-0.0687,0,0,-0.0603,-0.0637,-0.0661,-0.0675,-0.0704,-0.0708,-0.0718,-0.0729,-0.0729,-0.0723,-0.0726,-0.0736,-0.0722,-0.0727,-0.0728,-0.0739,-0.0752,-0.0745,-0.0752,-0.0773,-0.0777,-0.078,-0.0829,-0.0836,-0.0749,-0.0749,-0.0749,0,-0.0591,-0.0632,-0.0664,-0.0686,-0.0697,-0.0713,-0.0725,-0.0723,-0.0726,-0.0727,-0.0725,-0.0726,-0.0727,-0.0739,-0.0748,-0.0746,-0.0768,-0.0742,-0.0777,-0.078,-0.0783,-0.0832,-0.084,-0.075,-0.075,-0.075,-0.075,0,-0.0609,-0.0638,-0.0654,-0.0691,-0.0702,-0.0717,-0.0728,-0.0733,-0.0735,-0.0732,-0.074,-0.0738,-0.0745,-0.0752,-0.0752,-0.0778,-0.0794,-0.0779,-0.077,-0.0789,-0.0841,-0.0848,-0.0753,-0.0752,-0.0752,-0.0751,0,0,-0.0586,-0.0654,-0.0657,-0.0676,-0.0708,-0.0718,-0.0728,-0.0739,-0.0757,-0.0742,-0.0759,-0.0755,-0.0764,-0.0765,-0.0776,-0.0788,-0.0844,-0.0794,-0.0795,-0.0846,-0.0917,-0.084,-0.0841,-0.0839,-0.084,-0.084,-0.0958,0,-0.0585,-0.063,-0.0661,-0.0683,-0.0703,-0.0726,-0.0735,-0.0747,-0.076,-0.0777,-0.0772,-0.08,-0.0767,-0.0803,-0.0797,-0.0842,-0.0859,-0.0815,-0.0887,-0.089,-0.082,-0.0844,-0.0842,-0.0963,-0.0965,-0.0966,-0.0967,0,-0.0583,-0.0617,-0.0648,-0.0695,-0.0706,-0.0715,-0.0753,-0.0762,-0.079,-0.081,-0.0822,-0.0842,-0.0871,-0.0843,-0.0887,-0.0865,-0.0886,-0.0904,-0.0909,-0.0822,-0.0823,-0.0931,-0.098,-0.0979,-0.0978,-0.0977,-0.0977,0,-0.055,-0.0602,-0.0628,-0.0642,-0.0695,-0.0709,-0.0728,-0.0764,-0.0787,-0.0848,-0.0897,-0.0907,-0.096,-0.0953,-0.0977,-0.0957,-0.1023,-0.1007,-0.0952,-0.095,-0.0972,-0.0967,-0.1025,-0.1025,-0.1024,-0.1024,-0.1024,0,-0.0536,-0.0554,-0.0616,-0.0631,-0.0651,-0.0692,-0.072,-0.0757,-0.0814,-0.0844,-0.0911,-0.0951,-0.0992,-0.103,-0.1012,-0.1001,-0.1055,-0.0954,-0.0964,-0.0988,-0.0983,-0.098,-0.0973,-0.1029,-0.1028,-0.1027,-0.1026,0,-0.0495,-0.0539,-0.0568,-0.0626,-0.0639,-0.0648,-0.0706,-0.073,-0.0817,-0.087,-0.0908,-0.1021,-0.1068,-0.1088,-0.1125,-0.1075,-0.1064,-0.1045,-0.1101,-0.1113,-0.0978,-0.0972,-0.1013,-0.1011,-0.101,-0.1008,-0.1007,0,-0.0479,-0.0491,-0.0552,-0.0567,-0.0591,-0.0615,-0.0631,-0.0704,-0.0733,-0.0882,-0.0898,-0.1021,-0.1063,-0.1071,-0.1083,-0.1069,-0.1033,-0.1069,-0.0976,-0.0966,-0.0972,-0.0968,-0.0964,-0.1004,-0.1004,-0.1004,-0.1003,0,-0.0436,-0.0461,-0.0493,-0.0526,-0.0541,-0.056,-0.059,-0.0611,-0.0699,-0.0801,-0.0884,-0.0941,-0.0998,-0.1015,-0.1032,-0.0998,-0.1066,-0.1051,-0.1053,-0.0966,-0.0955,-0.0963,-0.0961,-0.0997,-0.0998,-0.0999,-0.0999,0,-0.0393,-0.0402,-0.0447,-0.047,-0.0495,-0.0497,-0.0519,-0.0558,-0.0601,-0.0758,-0.0772,-0.0881,-0.0973,-0.0979,-0.0966,-0.0955,-0.0926,-0.0912,-0.0921,-0.0928,-0.0836,-0.0806,-0.0812,0,0,0,0,0,-0.0339,-0.0353,-0.0386,-0.0403,-0.0433,-0.0443,-0.0492,-0.0522,-0.0604,-0.0634,-0.0704,-0.0739,-0.0793,-0.085,-0.0813,-0.0899,-0.0912,-0.0856,-0.0895,-0.0965,-0.0972,-0.0866,0,0,0,0,0,0,-0.0305,-0.0328,-0.0365,-0.0349,-0.0349,-0.0357,-0.0385,-0.0443,-0.0462,-0.0568,-0.0588,-0.0693,-0.073,-0.0783,-0.0794,-0.0807,-0.0819,-0.0912,-0.091,-0.0961,-0.0967,-0.0972,-0.0866,0,0,0,0,0]},{"header":{"parameterUnit":"m.s-1","parameterCategory":2,"la1":30.2991,"la2":30.254,"lo1":-89.0895,"lo2":-89.0444,"dy":0.0017,"dx":0.0017,"nx":28,"ny":28,"refTime":"2023-10-25T21:00:00:Z","depth":"4","parameterNumber":3,"parameterNumberName":"V-component_of_CURRENTS"},"data":[0,0,0,0,0,0,0,0,0,0,0,0,0,0,0,0,0,0,0,0,0,0,0,0,0,0,0,0,0,0,0,0,0,0,0,0,0,0,0,0,0,0,0,0,0,0,0,0,0,0,0,0,0,0,0,0,0,0,0.037,0.037,0,0.0406,0.0406,0.0407,0.043,0.0431,0.0431,0.0431,0.0445,0.0445,0.0445,0,0,0,0,0,0,0,0,0,0,0,0,0,0.0329,0.033,0.037,0.037,0.0371,0.0406,0.0406,0.0407,0.043,0.0431,0.0431,0.0431,0.0444,0.0445,0.0445,0,0,0,0,0,0,0,0,0,0,0,0,0,0.0354,0.033,0.037,0.0387,0.0389,0.0406,0.0406,0.0407,0.043,0.0431,0.0431,0.0431,0.0444,0.0445,0.0445,0.0441,0,0,0.0446,0.0446,0,0,0,0,0,0,0,0,0.0353,0.0356,0.0384,0.0386,0.0388,0.0414,0.0397,0.0417,0.043,0.0414,0.0431,0.0431,0.0432,0.0434,0.044,0.0442,0.0443,0.0446,0.0446,0.0446,0.0446,0,0,0,0,0,0,0,0.0351,0.0354,0.0384,0.0384,0.0387,0.0396,0.0399,0.0401,0.0421,0.0416,0.0418,0.0422,0.0433,0.0439,0.044,0.0443,0.0446,0.0446,0.0446,0.0446,0.043,0.0429,0,0,0,0,0,0,0.0346,0.0353,0.0383,0.0385,0.0371,0.0396,0.04,0.0405,0.0421,0.0424,0.0422,0.0423,0.0439,0.044,0.0441,0.0447,0.0446,0.0446,0.0447,0.0431,0.043,0.0429,0,0,0,0,0,0,0.0345,0.0349,0.0381,0.037,0.0374,0.0396,0.0402,0.0406,0.0417,0.0426,0.0429,0.0429,0.0439,0.044,0.043,0.0447,0.0447,0.0447,0.0431,0.043,0.043,0.0453,0,0,0,0,0,0,0.0344,0.0348,0.0353,0.0369,0.0375,0.039,0.0402,0.0406,0.0419,0.0421,0.0433,0.0434,0.0439,0.043,0.043,0.0448,0.0447,0.0432,0.0431,0.043,0.0453,0.0453,0.0453,0,0,0,0,0,0.0342,0.0347,0.0353,0.0357,0.038,0.039,0.0393,0.041,0.0419,0.0421,0.0419,0.0434,0.0423,0.0429,0.043,0.0448,0.0433,0.0431,0.043,0.0453,0.0453,0.0453,0,0,0,0,0,0,0.0334,0.035,0.0357,0.0368,0.0377,0.0394,0.0401,0.041,0.0413,0.0414,0.0423,0.0423,0.0425,0.0422,0.0428,0.0436,0.0432,0.0431,0.0449,0.0449,0.0449,0.0449,0.0447,0,0,0,0,0,0.0334,0.034,0.0355,0.0362,0.0369,0.0385,0.0393,0.0401,0.0406,0.0409,0.0413,0.0415,0.0419,0.0421,0.042,0.0422,0.0446,0.0432,0.0432,0.0433,0.0431,0.047,0.0474,0.0425,0.0425,0.0425,0,0,0.0331,0.0342,0.0345,0.0361,0.0372,0.0375,0.0391,0.04,0.0403,0.0408,0.0409,0.0415,0.0417,0.042,0.0422,0.0422,0.0463,0.0431,0.0431,0.0429,0.0469,0.0474,0.0479,0.0424,0.0424,0.0424,0,0,0.0325,0.034,0.0341,0.0348,0.0362,0.0371,0.0373,0.0386,0.0396,0.039,0.0402,0.0409,0.0406,0.042,0.0425,0.042,0.046,0.0424,0.043,0.0469,0.0474,0.0479,0.0539,0.0548,0.0426,0.0426,0.0426,0,0.0319,0.0326,0.0343,0.0344,0.0348,0.0367,0.0364,0.0376,0.0382,0.0389,0.0387,0.04,0.0407,0.0427,0.0428,0.0424,0.0459,0.0436,0.0472,0.0477,0.0482,0.0542,0.0552,0.0427,0.0427,0.0427,0.0427,0,0.0311,0.0317,0.0319,0.0326,0.0331,0.0333,0.0347,0.0353,0.0362,0.0375,0.039,0.0399,0.0409,0.042,0.0423,0.0462,0.0482,0.0471,0.048,0.0489,0.0551,0.0562,0.0429,0.0428,0.0428,0.0428,0,0,0.0296,0.031,0.031,0.0307,0.0321,0.032,0.0328,0.0341,0.0347,0.0363,0.0376,0.0397,0.0416,0.0421,0.0441,0.0475,0.0548,0.0489,0.0491,0.0564,0.0659,0.0543,0.0544,0.0552,0.0553,0.0554,0.0699,0,0.0284,0.028,0.0291,0.0282,0.028,0.0295,0.0296,0.031,0.0328,0.0344,0.038,0.0399,0.0415,0.043,0.0467,0.0525,0.0573,0.0511,0.0626,0.063,0.0537,0.055,0.0559,0.0707,0.071,0.0712,0.0713,0,0.0271,0.027,0.0262,0.0257,0.0257,0.0253,0.026,0.0263,0.0298,0.0314,0.0351,0.0386,0.0451,0.0451,0.0574,0.0538,0.0599,0.0644,0.065,0.0536,0.0531,0.0689,0.0733,0.0731,0.073,0.0728,0.0727,0,0.0249,0.0247,0.0238,0.0237,0.0238,0.0236,0.0233,0.0255,0.0253,0.0307,0.0319,0.04,0.0444,0.0529,0.0618,0.0613,0.0743,0.0748,0.0708,0.0703,0.076,0.0753,0.083,0.083,0.083,0.0829,0.0829,0,0.0229,0.0222,0.0227,0.0221,0.0203,0.021,0.0196,0.021,0.0224,0.0221,0.0305,0.0326,0.0464,0.0549,0.0631,0.0693,0.0761,0.0711,0.0723,0.0768,0.076,0.077,0.0761,0.0835,0.0834,0.0833,0.0832,0,0.0207,0.0212,0.02,0.0197,0.0193,0.0177,0.0159,0.0146,0.0175,0.0177,0.0198,0.03,0.0394,0.0513,0.066,0.0695,0.0775,0.078,0.0836,0.0848,0.0722,0.0712,0.0773,0.077,0.0767,0.0765,0.0763,0,0.0199,0.0192,0.0179,0.0163,0.0162,0.0139,0.0117,0.0121,0.0102,0.0146,0.0141,0.0243,0.0308,0.0446,0.0565,0.071,0.0705,0.0783,0.0734,0.0706,0.0712,0.0707,0.0701,0.0759,0.0758,0.0757,0.0757,0,0.0181,0.0179,0.0166,0.0132,0.0107,0.0068,0.0037,0.0017,0.0018,0.0055,0.0083,0.0165,0.0253,0.0385,0.0486,0.0587,0.0752,0.0755,0.0762,0.0717,0.069,0.0697,0.0695,0.0748,0.0749,0.075,0.075,0,0.0173,0.0151,0.0131,0.01,0.0061,0.0004,-0.001,-0.0038,-0.0052,-0.0012,0.0,0.0114,0.0207,0.0319,0.0414,0.0489,0.0505,0.0552,0.0569,0.0581,0.045,0.0383,0.0357,0,0,0,0,0,0.017,0.0135,0.0097,0.0048,0.0005,-0.002,-0.0062,-0.0075,-0.0068,-0.0072,-0.0046,0.0023,0.0148,0.023,0.0278,0.0357,0.0521,0.0417,0.0584,0.0696,0.0707,0.057,0,0,0,0,0,0,0.016,0.0126,0.0093,0.0017,-0.0027,-0.0089,-0.0118,-0.0119,-0.0127,-0.0095,-0.0031,0.0027,0.015,0.0112,0.0278,0.0305,0.0415,0.0489,0.0489,0.069,0.07,0.0709,0.0572,0,0,0,0,0]}]]